Temperature
21 22 22 22 22 22 21 21 20 21 21 21 21 21 21 20 20 19 18 17 17 16 16 15 15 15 14 14 14 14 13 13 13 13 12 12 12 12 12 12 12 12 12 11
21 22 22 21 21 21 21 21 21 21 21 22 21 21 20 20 19 18 18 17 17 16 16 15 15 15 14 14 14 13 13 13 13 12 12 12 12 12 12 12 11 11 11 11
19 21 21 20 21 21 21 22 21 20 20 21 20 20 19 19 18 18 17 17 16 16 16 15 15 14 14 14 13 13 13 13 12 12 12 12 12 11 11 11 11 11 11 11
19 19 18 20 22 22 21 21 21 21 20 20 20 19 18 18 17 17 16 16 16 15 15 15 14 14 14 13 13 13 12 12 12 12 12 11 11 11 11 11 11 11 11 10
18 18 19 20 21 21 20 20 21 20 20 20 19 18 18 17 17 16 16 15 15 15 14 14 14 14 13 13 13 12 12 12 12 12 11 11 11 11 10 10 10 10 10 10
18 17 18 19 20 20 20 18 20 20 19 19 18 17 16 16 16 15 15 15 14 14 14 14 13 13 13 13 12 12 12 11 11 11 11 11 10 10 10 10 10 10 10 10
17 17 18 19 19 19 18 18 18 18 18 18 17 17 16 15 15 14 14 14 14 13 13 13 13 13 13 12 12 11 11 11 11 11 10 10 10 10 10 9 9 9 9 9
17 17 17 18 18 18 18 18 18 17 17 17 16 15 15 14 14 13 13 13 13 13 13 12 12 12 12 12 11 11 11 10 10 10 10 10 10 9 9 9 9 9 8 8
17 17 17 17 17 17 17 17 17 16 16 15 15 14 14 13 13 12 12 12 12 12 12 12 12 11 11 11 11 11 10 10 10 10 9 9 9 9 8 8 8 8 8 8
17 17 17 17 17 16 16 16 15 15 15 14 14 13 13 13 12 12 12 11 11 11 11 11 11 11 10 10 10 10 10 10 9 9 9 9 8 8 8 8 8 8 7 7
17 17 17 17 16 16 15 15 15 14 14 14 13 13 12 12 12 12 11 11 11 11 10 10 10 10 10 10 10 9 9 9 9 9 8 8 8 8 8 8 8 8 7 7
16 17 16 16 16 15 14 14 14 13 13 13 13 12 12 12 11 11 11 10 10 10 10 10 10 9 9 9 9 9 9 8 8 8 8 8 7 7 7 7 7 7 7 7
16 16 15 15 15 14 14 13 13 13 12 12 12 12 11 11 11 10 10 10 10 9 9 9 9 9 9 8 8 8 8 8 8 7 7 7 7 7 6 6 6 6 6 6
15 15 14 14 14 13 13 13 12 12 12 12 11 11 11 10 10 10 9 9 9 9 9 9 8 8 8 8 8 7 7 7 7 7 7 6 6 6 6 6 5 5 5 5
14 14 14 13 13 13 12 12 12 12 11 11 11 10 10 10 9 9 9 9 8 8 8 8 8 7 7 7 7 7 7 6 6 6 6 6 6 5 5 5 5 5 4 4
13 13 13 13 12 12 12 12 11 11 11 10 10 10 9 9 9 9 8 8 8 8 7 7 7 7 7 7 7 6 6 6 6 6 5 5 5 5 5 4 4 4 4 4
12 12 12 12 12 12 11 11 11 11 10 10 9 9 9 9 8 8 8 8 7 7 7 7 7 6 6 6 6 6 6 5 5 5 5 5 5 5 4 4 4 4 4 4
12 12 11 11 11 11 11 11 10 10 10 9 9 9 9 8 8 8 7 7 7 7 6 6 6 6 6 6 6 5 5 5 5 5 5 4 4 4 4 4 3 3 3 3
11 11 11 11 10 10 10 10 10 9 9 9 9 8 8 8 7 7 7 7 6 6 6 6 6 5 5 5 5 5 5 4 4 4 4 4 4 4 4 3 3 3 3 3
10 10 10 10 10 10 9 9 9 9 9 8 8 8 7 7 7 7 6 6 6 6 5 5 5 5 5 5 5 4 4 4 3 4 4 4 3 3 3 3 3 3 2 2
10 9 9 9 9 9 9 9 9 8 8 8 8 7 7 7 6 6 6 6 5 5 5 5 5 4 4 4 4 4 4 3 3 3 3 3 3 2 2 2 2 2 2 2
9 9 9 9 9 8 8 8 8 8 8 7 7 7 6 6 6 6 5 5 5 5 5 5 4 4 4 4 4 3 3 3 3 2 2 2 2 2 2 2 1 1 1 1
9 8 8 8 8 8 8 7 7 7 7 7 6 6 6 6 5 5 5 5 4 4 4 4 4 4 3 3 3 3 2 2 2 2 2 2 1 1 1 1 1 1 1 1
8 8 8 8 7 7 7 7 7 7 7 6 6 6 5 5 5 5 5 4 4 4 4 4 3 3 3 3 2 2 2 2 2 2 1 1 1 1 1 1 1 1 0 0
8 8 7 7 7 7 7 6 6 6 6 6 5 5 5 5 5 4 4 4 4 4 3 3 3 3 2 2 2 2 2 2 1 1 1 1 1 1 1 1 0 0 0 -0
7 7 7 7 7 6 6 6 6 6 5 5 5 5 5 4 4 4 4 3 3 3 3 3 3 2 2 2 2 2 1 1 1 1 1 1 1 1 1 0 0 0 -0 -0
6 6 6 6 6 6 6 5 5 5 5 5 4 4 4 4 4 3 3 3 3 3 2 2 2 2 2 2 1 1 1 1 1 1 0 0 0 0 -0 -0 -0 -0 -0 -1
Wind_Speed
11 10 9 8 9 9 9 9 8 7 7 5 1 1 1 2 2 3 3 4 3 3 2 3 3 3 3 3 4 4 4 4 4 3 3 3 2 2 2 2 3 3 2 2
11 12 10 10 11 11 10 10 9 9 8 3 2 2 2 2 2 2 2 2 2 2 2 3 3 3 3 2 3 4 4 4 3 3 3 2 2 2 3 2 2 2 2 2
9 10 10 10 9 10 9 8 9 8 4 1 1 2 3 3 3 2 2 1 1 1 1 2 2 2 2 2 2 3 3 3 3 3 2 2 2 2 2 2 2 2 2 2
7 9 9 4 1 2 4 5 4 2 0 1 2 3 3 3 2 2 2 1 1 0 0 1 1 0 2 2 2 3 3 3 3 2 2 2 1 2 1 1 2 2 2 3
6 7 7 5 3 2 3 4 1 1 1 2 3 1 3 4 4 3 3 2 1 2 1 0 0 0 1 2 2 2 2 2 2 2 2 2 1 1 1 1 2 2 2 2
7 7 6 2 3 3 3 3 2 1 1 1 1 1 1 3 4 4 4 3 3 2 2 1 1 0 1 1 2 1 2 2 2 2 2 2 2 1 1 1 2 1 2 2
10 9 5 2 2 3 3 0 4 4 2 1 1 2 2 4 5 5 4 4 3 3 2 1 1 0 1 1 0 0 1 2 2 2 2 2 1 0 0 0 1 1 1 1
7 8 5 1 2 2 2 3 3 3 3 3 4 4 4 4 4 4 4 3 3 3 2 2 2 2 1 1 0 1 1 2 2 2 2 2 2 1 1 1 0 1 1 1
3 2 2 1 1 2 3 2 3 3 3 4 3 3 3 3 3 3 3 3 3 3 2 3 3 2 1 1 0 1 1 2 1 2 2 2 2 1 1 1 0 0 1 1
4 2 1 1 1 1 2 2 2 2 3 2 2 2 2 2 2 2 2 3 3 3 3 3 2 2 2 2 1 1 1 2 1 2 2 2 2 1 1 1 0 1 1 1
7 4 2 2 1 0 1 2 2 1 1 1 1 1 1 1 1 2 2 2 3 3 3 4 4 4 3 3 1 0 0 1 1 1 2 2 2 1 1 1 1 0 0 1
5 4 4 2 0 1 0 1 1 1 1 1 1 0 1 1 1 2 2 2 2 3 3 3 3 4 4 4 2 1 0 1 1 1 1 2 2 1 2 2 2 2 2 1
5 5 4 3 1 1 1 1 1 1 1 0 1 1 1 1 2 2 2 2 2 2 2 3 4 4 4 4 3 2 1 1 1 1 1 1 1 1 1 1 2 1 1 1
3 2 3 3 3 3 3 2 2 2 1 1 1 1 1 1 1 1 1 1 2 2 2 3 3 3 4 4 2 2 2 2 1 1 1 1 0 0 0 0 1 1 1 1
4 4 4 3 3 3 3 3 3 3 2 2 1 1 1 1 0 1 1 1 2 1 2 2 3 3 3 3 2 2 2 2 1 1 1 1 1 0 0 1 0 1 1 2
4 4 4 4 5 4 4 4 4 3 3 3 2 1 1 1 1 1 1 1 0 1 1 2 2 3 2 2 2 2 2 2 2 1 1 1 0 0 0 1 1 0 1 1
4 5 5 5 5 5 4 4 4 3 2 2 2 2 1 1 2 1 1 1 1 1 1 2 2 2 2 1 1 1 1 1 0 0 0 0 0 0 0 0 1 0 0 0
5 5 5 5 4 4 4 4 3 3 3 3 3 3 2 2 1 1 0 1 1 1 1 2 2 2 2 2 2 1 1 0 0 0 0 0 0 0 0 1 1 0 0 1
3 3 3 3 2 2 3 3 3 3 3 3 3 3 2 2 2 2 1 1 1 1 1 2 2 1 1 2 2 1 1 1 1 1 1 1 1 0 0 0 0 0 0 1
1 1 1 1 1 1 1 1 2 2 2 3 2 2 2 1 1 2 1 1 1 1 1 2 1 1 1 1 1 1 1 0 0 0 1 1 1 1 0 1 1 0 0 1
2 1 1 1 1 1 1 1 2 2 2 2 2 2 2 1 1 1 1 1 0 2 1 2 1 1 1 1 1 1 0 0 1 0 0 0 1 1 1 1 0 0 0 0
1 1 1 1 1 1 1 1 1 2 2 1 1 1 1 1 1 1 1 1 1 2 1 1 1 1 1 0 1 1 1 1 1 1 1 1 1 1 1 1 1 1 0 0
1 1 1 1 1 1 1 1 1 2 2 2 1 1 1 1 1 1 1 1 1 1 1 1 1 2 1 0 1 1 1 1 1 1 1 1 1 1 1 1 1 0 0 1
1 1 1 1 1 1 1 1 1 1 1 1 1 1 1 1 1 1 1 2 2 2 1 2 2 2 1 1 1 1 1 1 1 1 1 1 1 1 1 1 1 1 1 1
1 1 2 2 2 1 1 1 1 1 1 1 1 1 1 1 1 1 1 2 2 2 1 2 2 2 1 1 1 1 1 1 2 1 1 1 1 1 1 1 1 1 1 1
1 1 1 1 1 1 1 1 1 1 1 1 1 1 0 1 1 1 1 1 1 2 1 1 2 2 1 1 1 1 1 1 1 1 1 1 1 1 1 1 2 2 2 2
2 2 1 1 1 1 1 1 1 1 2 1 1 1 1 1 1 1 1 1 1 1 1 1 1 1 1 1 1 1 1 1 1 1 1 1 2 2 2 2 2 2 2 2
Wind_Direction
275 282 280 278 273 269 263 261 263 270 274 283 354 99 68 90 100 118 134 142 147 162 167 163 179 184 179 180 180 179 173 180 194 200 190 199 203 200 217 220 222 223 226 230
274 271 270 266 263 260 256 258 257 263 270 291 20 40 53 62 96 102 106 128 153 179 182 186 200 191 168 172 178 177 177 184 189 193 191 200 206 209 216 224 227 225 223 230
276 280 277 261 256 255 257 252 252 256 262 334 34 35 37 47 62 99 102 83 119 218 213 218 226 184 174 177 175 172 176 183 180 187 189 204 220 225 217 214 233 242 245 232
275 277 261 267 289 272 267 275 272 248 179 41 46 68 75 62 41 53 67 83 77 307 244 282 298 163 172 166 182 182 174 169 156 161 167 180 204 219 223 232 240 231 246 236
266 268 268 270 282 279 277 274 294 189 95 69 61 67 89 56 43 49 49 52 46 15 10 344 281 165 154 170 172 170 168 168 163 164 173 179 195 203 227 252 253 239 255 251
252 261 261 286 343 334 281 258 44 61 89 85 90 251 53 55 55 49 45 43 44 32 16 11 357 185 177 182 157 175 174 174 181 171 169 180 191 214 223 232 247 248 260 259
246 253 254 283 310 290 261 71 60 41 35 53 22 56 74 66 59 55 50 45 32 18 16 16 4 54 145 130 163 184 142 156 173 168 161 154 162 197 126 155 282 269 269 283
239 247 244 89 244 279 44 73 59 39 36 48 61 73 79 76 63 58 50 42 29 18 19 20 24 28 88 100 66 75 123 150 158 151 152 135 123 111 102 102 11 312 317 326
248 238 81 95 51 39 52 41 41 29 37 62 69 61 71 71 66 61 49 38 33 25 23 30 23 11 23 6 41 147 139 151 164 150 139 125 122 116 99 102 105 314 318 311
263 228 198 156 115 47 30 18 21 35 48 61 74 71 72 66 65 66 52 39 28 26 26 21 18 33 23 27 51 26 149 165 176 161 143 122 109 101 93 78 56 354 339 336
263 251 258 253 254 53 41 24 11 31 32 24 59 67 81 78 75 83 65 48 32 28 18 13 23 32 22 20 55 52 125 118 129 121 118 109 101 88 110 105 114 97 304 333
264 279 277 267 39 112 122 280 295 332 347 23 45 78 62 71 73 85 74 58 46 36 27 23 25 26 19 19 24 29 94 118 94 79 96 117 129 101 67 89 76 55 33 26
274 293 307 313 294 264 241 246 234 252 253 203 97 84 53 48 52 68 64 54 40 28 41 42 34 28 21 15 27 42 34 70 101 97 87 87 120 143 115 35 38 29 18 25
267 277 269 262 263 256 248 238 224 227 203 139 116 100 88 66 50 57 63 52 39 26 41 48 40 27 18 17 34 34 32 37 71 114 111 108 87 16 157 200 343 351 357 22
257 257 251 252 247 242 241 222 205 193 175 168 155 142 141 141 104 53 62 56 52 48 47 46 40 27 19 24 41 45 34 21 46 70 73 97 121 66 25 28 12 3 26 23
258 251 241 239 242 239 235 220 215 208 196 175 165 155 149 140 116 71 68 64 52 19 48 59 39 18 14 28 36 56 60 40 42 47 57 87 85 86 57 10 337 1 27 23
242 242 240 239 238 233 230 229 222 210 197 176 172 167 154 128 104 81 62 60 56 32 44 55 53 30 15 36 50 56 81 53 15 56 197 182 163 138 188 268 291 336 4 22
237 239 243 243 245 236 225 218 208 199 197 191 180 179 167 154 147 134 102 96 111 89 65 58 56 34 29 34 33 30 44 53 1 282 239 238 211 166 191 239 251 299 3 18
229 239 241 234 234 237 229 214 198 190 190 182 181 184 184 179 172 178 196 200 169 164 137 106 81 55 63 42 26 17 21 33 40 31 19 0 349 342 349 333 5 42 19 34
184 199 216 221 204 208 214 202 186 178 173 160 174 181 188 196 181 172 186 196 168 140 124 119 151 152 107 72 29 349 5 22 17 14 20 8 337 325 327 339 356 360 18 60
181 173 180 192 179 181 188 186 166 161 158 161 173 184 191 194 174 168 184 214 114 99 117 143 155 124 108 66 332 316 353 328 285 247 213 242 295 304 307 289 268 283 324 32
179 171 180 171 182 200 172 172 162 158 147 153 167 182 196 196 172 184 199 171 116 105 117 151 145 128 112 13 268 242 217 241 256 250 249 242 245 253 270 288 277 257 229 293
199 193 193 197 214 212 186 197 188 162 157 162 184 207 224 226 196 201 209 136 124 143 154 164 162 169 174 273 246 237 220 221 239 244 256 264 251 239 239 252 265 272 233 242
193 207 214 221 224 213 213 209 180 157 148 154 199 217 217 207 202 183 148 133 144 155 156 147 169 198 226 250 241 239 230 224 234 245 256 261 259 241 224 220 223 227 245 254
232 231 222 214 217 221 213 179 167 163 162 195 220 215 202 170 172 161 138 144 155 155 164 183 207 223 231 259 259 257 261 251 247 251 237 249 257 252 241 231 222 224 228 240
256 244 247 247 229 207 209 191 190 189 191 212 214 187 185 164 151 137 135 147 175 199 198 194 206 213 228 250 261 259 245 266 289 279 256 250 255 255 245 237 237 243 247 246
238 229 216 213 199 192 193 189 195 207 205 202 202 189 169 144 136 150 165 175 187 206 205 201 202 207 218 233 253 266 262 234 233 250 266 270 272 264 245 238 246 244 244 246
Height
1475 1471 1471 1473 1473 1473 1475 1476 1482 1480 1479 1476 1474 1476 1477 1478 1480 1481 1483 1485 1487 1488 1490 1490 1491 1492 1493 1493 1494 1495 1496 1497 1498 1499 1500 1501 1502 1503 1504 1505 1505 1506 1507 1507
1476 1470 1469 1471 1470 1470 1471 1472 1474 1475 1476 1471 1473 1475 1476 1478 1479 1481 1482 1484 1486 1487 1488 1488 1489 1490 1490 1491 1492 1492 1493 1494 1495 1496 1497 1498 1499 1500 1501 1501 1502 1503 1504 1504
1481 1471 1470 1475 1468 1467 1467 1466 1469 1473 1473 1471 1473 1475 1477 1478 1479 1481 1482 1483 1484 1485 1486 1486 1487 1487 1488 1488 1489 1490 1491 1491 1492 1494 1494 1495 1496 1497 1498 1498 1499 1500 1500 1501
1481 1479 1486 1472 1461 1462 1464 1465 1464 1466 1469 1471 1473 1475 1477 1478 1479 1480 1481 1482 1483 1483 1484 1484 1484 1485 1485 1485 1486 1487 1488 1488 1489 1490 1491 1492 1493 1493 1494 1495 1496 1496 1497 1497
1482 1483 1478 1469 1463 1463 1467 1467 1465 1467 1469 1471 1473 1474 1477 1478 1479 1479 1480 1480 1481 1481 1482 1482 1482 1482 1483 1483 1483 1484 1484 1485 1486 1487 1488 1488 1489 1490 1491 1492 1492 1493 1493 1494
1480 1484 1483 1473 1465 1464 1467 1471 1467 1467 1469 1471 1473 1476 1478 1478 1478 1478 1479 1479 1479 1479 1480 1479 1480 1480 1481 1481 1481 1481 1482 1482 1483 1484 1485 1485 1486 1487 1488 1488 1489 1489 1490 1490
1479 1480 1475 1468 1466 1466 1475 1474 1469 1469 1470 1472 1473 1475 1477 1477 1477 1478 1478 1478 1478 1478 1478 1478 1478 1478 1478 1478 1479 1479 1480 1480 1481 1481 1482 1482 1483 1484 1484 1485 1485 1486 1486 1486
1474 1479 1478 1468 1467 1469 1471 1469 1470 1470 1472 1473 1473 1474 1475 1476 1476 1477 1477 1477 1477 1477 1476 1476 1476 1475 1475 1476 1476 1477 1477 1478 1478 1478 1479 1480 1480 1481 1481 1482 1482 1482 1482 1482
1470 1473 1469 1467 1468 1469 1469 1470 1471 1472 1472 1473 1473 1474 1474 1475 1476 1476 1476 1476 1475 1475 1475 1475 1474 1474 1473 1474 1474 1474 1475 1475 1475 1476 1476 1477 1477 1478 1478 1479 1479 1479 1479 1480
1465 1466 1466 1467 1467 1469 1469 1470 1471 1472 1472 1473 1473 1473 1474 1474 1475 1475 1475 1475 1474 1474 1473 1473 1472 1472 1471 1471 1471 1472 1472 1473 1473 1474 1474 1474 1475 1476 1476 1476 1476 1477 1477 1477
1463 1464 1465 1466 1467 1468 1468 1469 1470 1471 1472 1472 1472 1472 1473 1473 1473 1473 1474 1473 1473 1472 1472 1471 1470 1470 1469 1469 1469 1469 1470 1471 1471 1472 1472 1472 1473 1473 1474 1474 1474 1474 1474 1474
1464 1463 1464 1464 1465 1466 1467 1468 1469 1469 1470 1471 1471 1471 1471 1471 1471 1472 1472 1472 1471 1470 1470 1469 1469 1468 1467 1466 1466 1467 1467 1468 1469 1469 1470 1470 1471 1471 1472 1473 1473 1472 1472 1473
1461 1462 1462 1463 1464 1465 1465 1466 1467 1468 1468 1468 1469 1469 1469 1469 1469 1470 1470 1469 1469 1469 1468 1467 1466 1466 1465 1465 1464 1464 1465 1466 1466 1467 1467 1468 1469 1469 1469 1470 1470 1470 1470 1470
1459 1460 1461 1462 1462 1463 1463 1464 1465 1465 1466 1466 1467 1467 1467 1467 1467 1467 1468 1467 1467 1467 1466 1465 1464 1464 1463 1463 1462 1463 1463 1464 1464 1465 1465 1466 1466 1467 1467 1467 1467 1467 1467 1467
1457 1457 1458 1459 1460 1460 1461 1461 1462 1463 1463 1464 1465 1465 1465 1465 1465 1465 1465 1465 1465 1465 1464 1463 1463 1463 1462 1461 1461 1461 1461 1462 1462 1463 1463 1464 1464 1465 1465 1465 1465 1464 1464 1464
1454 1454 1455 1456 1457 1457 1458 1459 1459 1460 1460 1461 1462 1462 1463 1463 1463 1463 1463 1463 1463 1463 1462 1462 1461 1461 1461 1460 1460 1460 1460 1461 1461 1461 1462 1462 1462 1463 1463 1463 1463 1462 1461 1461
1450 1451 1452 1453 1453 1454 1455 1455 1456 1457 1458 1458 1459 1460 1460 1461 1461 1461 1461 1461 1461 1461 1461 1460 1460 1460 1460 1459 1459 1459 1459 1459 1460 1460 1460 1460 1460 1460 1460 1460 1460 1460 1459 1459
1447 1448 1449 1449 1450 1450 1451 1452 1453 1454 1455 1456 1457 1457 1457 1458 1458 1458 1459 1459 1459 1458 1458 1458 1458 1458 1458 1458 1457 1457 1457 1457 1458 1458 1458 1458 1458 1458 1458 1458 1458 1457 1457 1457
1444 1445 1446 1446 1447 1448 1448 1449 1450 1451 1452 1453 1454 1454 1455 1455 1456 1456 1456 1456 1456 1456 1456 1456 1456 1456 1456 1456 1456 1456 1455 1455 1456 1456 1456 1456 1456 1456 1456 1455 1455 1455 1455 1454
1442 1442 1443 1444 1445 1445 1446 1446 1447 1448 1449 1450 1451 1452 1452 1453 1453 1453 1453 1454 1454 1453 1453 1453 1453 1453 1453 1454 1454 1453 1454 1454 1454 1453 1453 1453 1454 1454 1453 1453 1453 1452 1452 1452
1440 1440 1441 1442 1443 1444 1444 1445 1445 1446 1447 1448 1448 1449 1450 1450 1451 1451 1450 1451 1451 1451 1451 1451 1451 1451 1451 1451 1451 1451 1451 1451 1451 1451 1451 1451 1451 1451 1450 1450 1450 1450 1450 1449
1438 1439 1440 1440 1441 1442 1442 1443 1443 1444 1445 1445 1446 1447 1447 1447 1448 1448 1448 1449 1448 1449 1449 1449 1449 1449 1449 1449 1448 1448 1448 1448 1448 1448 1448 1448 1448 1447 1447 1447 1447 1447 1447 1446
1437 1438 1438 1439 1439 1440 1440 1441 1441 1442 1442 1443 1443 1444 1444 1445 1445 1445 1445 1446 1446 1446 1446 1446 1446 1446 1446 1446 1446 1446 1446 1445 1445 1445 1445 1445 1445 1445 1445 1445 1444 1444 1444 1444
1436 1436 1437 1437 1438 1438 1439 1439 1440 1440 1440 1441 1442 1442 1442 1442 1442 1443 1443 1443 1443 1443 1443 1443 1444 1444 1443 1443 1443 1443 1443 1443 1442 1442 1442 1442 1442 1442 1442 1441 1441 1441 1440 1440
1434 1435 1435 1436 1436 1436 1437 1437 1438 1438 1438 1439 1439 1440 1440 1440 1440 1440 1440 1440 1441 1441 1441 1441 1441 1441 1441 1440 1440 1440 1440 1440 1440 1440 1439 1439 1439 1439 1438 1438 1438 1437 1437 1437
1432 1433 1433 1434 1434 1435 1435 1435 1436 1436 1436 1437 1437 1437 1437 1437 1438 1438 1438 1438 1438 1438 1438 1438 1438 1438 1438 1438 1438 1437 1437 1437 1437 1436 1436 1436 1435 1435 1435 1434 1434 1434 1433 1433
1430 1431 1431 1431 1432 1432 1433 1433 1433 1434 1434 1434 1434 1434 1435 1435 1435 1435 1435 1435 1435 1435 1435 1435 1435 1435 1435 1435 1435 1435 1434 1434 1434 1433 1433 1432 1432 1431 1431 1430 1430 1429 1429 1429